Powrót do katalogu

STARLINK-2430

AktywnyŁącznośćVLEO
NORAD 48100·PAYLOAD·🇺🇸 United States

Wystrzelony Apr 7, 2021 z Cape Canaveral Space Force Station

Loading…

Następne Przeloty (najbliższe 24 godziny)

TLE

ŚwieżeSource: CelesTrak SupGP

Epoka: Sep 15, 2026, 02:36 UTC

1 48100C 21027J   26258.10881944  .00050823  00000+0  16339-2 0  2582
2 48100  53.1606 350.9683 0001131  89.6329 154.4076 15.31685630    19

Śledź STARLINK-2430 w czasie rzeczywistym z AllMySat

Download on the App Store